QPF
0.00 0.00 0.00 0.05 0.01 0.01 0.01 0.04 0.04 0.01 0.01 0.03 0.04 0.00 0.00 0.00 0.00 0.00 0.00 0.00 0.00 0.00 0.00 0.00 0.00 0.00 0.00 0.00 0.00 0.00 0.00 0.00 0.00 0.00 0.00 0.00 0.00 0.00 0.00 0.00 0.00 0.00 0.00
0.00 0.01 0.01 0.02 0.00 0.01 0.01 0.01 0.03 0.01 0.00 0.02 0.03 0.03 0.03 0.00 0.00 0.00 0.00 0.00 0.00 0.00 0.00 0.00 0.01 0.00 0.00 0.00 0.00 0.00 0.00 0.00 0.00 0.00 0.00 0.00 0.00 0.00 0.00 0.00 0.00 0.01 0.01
0.00 0.01 0.03 0.01 0.01 0.01 0.01 0.00 0.01 0.01 0.00 0.00 0.04 0.05 0.06 0.06 0.01 0.00 0.00 0.00 0.00 0.00 0.00 0.00 0.00 0.01 0.00 0.00 0.00 0.00 0.00 0.00 0.00 0.00 0.00 0.00 0.01 0.00 0.00 0.00 0.00 0.00 0.00
0.00 0.00 0.00 0.00 0.02 0.02 0.01 0.01 0.00 0.00 0.00 0.00 0.00 0.01 0.02 0.03 0.02 0.02 0.00 0.00 0.00 0.00 0.00 0.00 0.00 0.00 0.01 0.01 0.00 0.00 0.00 0.00 0.00 0.00 0.00 0.01 0.04 0.00 0.00 0.00 0.00 0.00 0.00
0.00 0.00 0.00 0.00 0.00 0.00 0.00 0.00 0.00 0.00 0.00 0.00 0.00 0.00 0.00 0.00 0.00 0.00 0.00 0.01 0.01 0.00 0.00 0.00 0.00 0.03 0.02 0.00 0.00 0.00 0.00 0.00 0.00 0.00 0.00 0.02 0.06 0.01 0.00 0.00 0.00 0.00 0.00
0.00 0.00 0.00 0.00 0.00 0.00 0.00 0.00 0.00 0.00 0.00 0.00 0.00 0.00 0.00 0.01 0.00 0.00 0.00 0.00 0.00 0.00 0.00 0.00 0.00 0.00 0.00 0.01 0.00 0.00 0.00 0.00 0.00 0.00 0.00 0.00 0.00 0.00 0.00 0.00 0.00 0.00 0.00
0.00 0.00 0.00 0.00 0.00 0.00 0.00 0.00 0.00 0.00 0.00 0.00 0.00 0.00 0.00 0.02 0.03 0.03 0.03 0.02 0.00 0.00 0.00 0.01 0.03 0.03 0.01 0.03 0.01 0.00 0.00 0.00 0.00 0.00 0.00 0.00 0.00 0.00 0.00 0.00 0.00 0.00 0.00
0.00 0.00 0.00 0.00 0.00 0.00 0.00 0.00 0.00 0.00 0.00 0.00 0.00 0.00 0.00 0.00 0.00 0.00 0.01 0.03 0.02 0.00 0.00 0.00 0.02 0.02 0.01 0.04 0.04 0.05 0.03 0.01 0.00 0.00 0.00 0.00 0.00 0.00 0.00 0.00 0.00 0.00 0.00
0.00 0.00 0.00 0.00 0.00 0.00 0.00 0.00 0.00 0.00 0.00 0.00 0.00 0.00 0.00 0.00 0.00 0.00 0.00 0.00 0.00 0.01 0.00 0.00 0.00 0.00 0.00 0.01 0.03 0.02 0.00 0.00 0.00 0.00 0.00 0.00 0.00 0.00 0.00 0.00 0.00 0.00 0.00
0.00 0.00 0.00 0.00 0.00 0.00 0.00 0.00 0.00 0.00 0.00 0.00 0.00 0.00 0.00 0.00 0.00 0.00 0.00 0.00 0.00 0.00 0.00 0.00 0.00 0.00 0.01 0.00 0.00 0.01 0.00 0.00 0.00 0.00 0.00 0.00 0.00 0.00 0.00 0.00 0.00 0.00 0.00
0.00 0.00 0.00 0.00 0.00 0.00 0.00 0.00 0.00 0.00 0.00 0.00 0.00 0.00 0.00 0.00 0.00 0.00 0.00 0.00 0.00 0.00 0.00 0.00 0.00 0.00 0.01 0.00 0.00 0.00 0.00 0.00 0.00 0.01 0.00 0.00 0.00 0.00 0.00 0.00 0.00 0.00 0.00
0.00 0.00 0.00 0.00 0.00 0.00 0.00 0.00 0.00 0.00 0.00 0.00 0.00 0.00 0.00 0.00 0.00 0.00 0.00 0.00 0.00 0.00 0.00 0.00 0.00 0.00 0.00 0.00 0.00 0.01 0.01 0.00 0.00 0.00 0.00 0.00 0.00 0.00 0.00 0.00 0.00 0.00 0.00
0.00 0.00 0.00 0.00 0.00 0.00 0.00 0.00 0.00 0.00 0.00 0.00 0.00 0.00 0.00 0.00 0.00 0.00 0.00 0.00 0.00 0.00 0.00 0.00 0.00 0.00 0.00 0.00 0.00 0.01 0.02 0.02 0.00 0.01 0.01 0.00 0.00 0.00 0.00 0.00 0.00 0.00 0.00
0.00 0.00 0.00 0.00 0.00 0.00 0.00 0.00 0.00 0.00 0.00 0.00 0.00 0.00 0.00 0.00 0.00 0.00 0.00 0.00 0.00 0.00 0.00 0.00 0.00 0.00 0.00 0.00 0.00 0.00 0.01 0.02 0.02 0.01 0.02 0.02 0.00 0.00 0.00 0.00 0.00 0.00 0.00
0.00 0.00 0.00 0.00 0.00 0.00 0.00 0.00 0.00 0.00 0.00 0.00 0.00 0.00 0.00 0.00 0.00 0.00 0.00 0.00 0.00 0.00 0.00 0.00 0.00 0.00 0.00 0.00 0.00 0.00 0.00 0.00 0.01 0.01 0.01 0.02 0.01 0.01 0.00 0.00 0.00 0.00 0.00
0.00 0.00 0.00 0.00 0.00 0.00 0.00 0.00 0.00 0.00 0.00 0.00 0.00 0.00 0.00 0.00 0.00 0.00 0.00 0.00 0.00 0.00 0.00 0.00 0.00 0.00 0.00 0.00 0.00 0.00 0.00 0.00 0.00 0.00 0.01 0.02 0.01 0.01 0.01 0.01 0.00 0.00 0.00
0.00 0.00 0.00 0.00 0.00 0.00 0.00 0.00 0.00 0.00 0.00 0.00 0.00 0.00 0.00 0.00 0.00 0.00 0.00 0.00 0.00 0.00 0.00 0.00 0.00 0.00 0.00 0.00 0.00 0.00 0.00 0.00 0.00 0.00 0.00 0.01 0.02 0.01 0.02 0.03 0.04 0.01 0.00
0.00 0.00 0.00 0.00 0.00 0.00 0.00 0.00 0.00 0.00 0.00 0.00 0.00 0.00 0.00 0.00 0.00 0.00 0.00 0.00 0.00 0.00 0.00 0.00 0.00 0.00 0.00 0.00 0.00 0.00 0.00 0.00 0.00 0.00 0.00 0.01 0.02 0.02 0.02 0.03 0.04 0.03 0.01
0.00 0.00 0.00 0.00 0.00 0.00 0.00 0.00 0.00 0.00 0.00 0.00 0.00 0.00 0.00 0.00 0.00 0.00 0.00 0.00 0.00 0.00 0.00 0.00 0.00 0.00 0.00 0.00 0.00 0.00 0.00 0.00 0.00 0.00 0.00 0.00 0.01 0.02 0.02 0.04 0.06 0.08 0.10
0.00 0.00 0.00 0.00 0.00 0.00 0.00 0.00 0.00 0.00 0.00 0.00 0.00 0.00 0.00 0.00 0.00 0.00 0.00 0.00 0.00 0.00 0.00 0.00 0.00 0.00 0.00 0.00 0.00 0.00 0.00 0.00 0.00 0.00 0.00 0.00 0.01 0.01 0.02 0.03 0.03 0.06 0.08
0.00 0.00 0.00 0.00 0.00 0.00 0.00 0.00 0.00 0.00 0.00 0.00 0.00 0.00 0.00 0.00 0.00 0.00 0.00 0.00 0.00 0.00 0.00 0.00 0.00 0.00 0.00 0.00 0.00 0.00 0.00 0.00 0.00 0.00 0.00 0.00 0.00 0.01 0.02 0.02 0.02 0.04 0.08
0.00 0.00 0.00 0.00 0.00 0.00 0.00 0.00 0.00 0.00 0.00 0.00 0.00 0.00 0.00 0.00 0.00 0.00 0.00 0.00 0.00 0.00 0.00 0.00 0.00 0.00 0.00 0.00 0.00 0.01 0.00 0.00 0.00 0.00 0.00 0.01 0.01 0.04 0.06 0.09 0.09 0.07 0.07
0.00 0.00 0.00 0.00 0.00 0.00 0.00 0.00 0.00 0.00 0.00 0.00 0.00 0.00 0.00 0.00 0.00 0.00 0.00 0.00 0.00 0.00 0.00 0.00 0.00 0.00 0.00 0.00 0.00 0.01 0.01 0.01 0.00 0.00 0.00 0.02 0.07 0.11 0.16 0.21 0.29 0.20 0.14
0.00 0.00 0.00 0.00 0.00 0.00 0.00 0.00 0.00 0.00 0.00 0.00 0.00 0.00 0.00 0.00 0.00 0.00 0.00 0.00 0.00 0.00 0.00 0.00 0.00 0.00 0.00 0.00 0.00 0.00 0.00 0.02 0.03 0.00 0.00 0.01 0.11 0.16 0.22 0.30 0.21 0.12 0.12
0.00 0.00 0.00 0.00 0.00 0.00 0.00 0.00 0.00 0.00 0.00 0.00 0.00 0.00 0.00 0.00 0.00 0.00 0.00 0.00 0.00 0.00 0.00 0.00 0.00 0.00 0.00 0.00 0.00 0.00 0.00 0.00 0.00 0.00 0.00 0.02 0.03 0.05 0.11 0.13 0.07 0.03 0.03
0.00 0.00 0.00 0.00 0.00 0.00 0.00 0.00 0.00 0.00 0.00 0.00 0.00 0.00 0.00 0.00 0.00 0.00 0.00 0.00 0.00 0.00 0.00 0.00 0.00 0.00 0.00 0.00 0.00 0.00 0.00 0.00 0.00 0.00 0.00 0.00 0.00 0.00 0.00 0.01 0.01 0.02 0.01
MSLP
1014.95 1014.76 1015.08 1015.14 1015.29 1015.29 1015.29 1015.37 1015.37 1015.41 1015.49 1015.42 1015.56 1015.52 1015.56 1015.59 1015.58 1015.55 1015.54 1015.53 1015.50 1015.48 1015.41 1015.30 1015.23 1015.18 1015.13 1015.11 1015.13 1015.16 1015.17 1015.16 1015.16 1015.18 1015.11 1015.04 1015.03 1015.12 1015.21 1015.22 1015.16 1014.81 1015.21
1014.92 1014.76 1015.42 1015.53 1015.57 1015.56 1015.58 1015.60 1015.62 1015.65 1015.67 1015.62 1015.53 1015.56 1015.62 1015.62 1015.64 1015.59 1015.51 1015.53 1015.53 1015.46 1015.39 1015.31 1015.27 1015.23 1015.16 1015.11 1015.13 1015.17 1015.19 1015.23 1015.30 1015.32 1015.30 1015.26 1015.22 1015.24 1015.26 1015.30 1015.33 1015.12 1015.31
1015.22 1015.51 1015.65 1015.97 1015.92 1015.86 1015.87 1015.85 1015.85 1015.84 1015.80 1015.74 1015.69 1015.64 1015.60 1015.66 1015.62 1015.62 1015.57 1015.52 1015.50 1015.42 1015.35 1015.31 1015.27 1015.25 1015.19 1015.22 1015.22 1015.23 1015.24 1015.24 1015.25 1015.26 1015.25 1014.91 1014.72 1015.22 1015.33 1015.36 1015.36 1015.38 1015.46
1015.58 1016.12 1016.48 1016.54 1016.40 1016.31 1016.22 1016.20 1016.08 1015.99 1015.93 1015.84 1015.77 1015.71 1015.68 1015.65 1015.58 1015.56 1015.52 1015.52 1015.49 1015.46 1015.43 1015.36 1015.34 1015.31 1015.26 1015.27 1015.27 1015.24 1015.24 1015.27 1015.29 1015.23 1014.98 1014.38 1014.46 1015.07 1015.24 1015.35 1015.42 1015.43 1015.54
1015.88 1016.49 1017.12 1016.96 1016.92 1016.83 1016.71 1016.64 1016.48 1016.33 1016.17 1016.01 1015.90 1015.79 1015.69 1015.61 1015.54 1015.45 1015.42 1015.41 1015.41 1015.47 1015.47 1015.43 1015.36 1015.22 1015.22 1015.18 1015.25 1015.26 1015.24 1015.22 1015.21 1015.15 1014.45 1014.11 1014.53 1014.68 1015.01 1015.23 1015.33 1015.38 1015.46
1016.10 1016.66 1017.39 1017.38 1017.31 1017.22 1017.09 1016.98 1016.87 1016.68 1016.49 1016.31 1016.06 1015.87 1015.73 1015.57 1015.51 1015.39 1015.35 1015.38 1015.39 1015.37 1015.34 1015.26 1015.22 1015.15 1015.11 1015.01 1015.07 1015.08 1015.11 1015.14 1015.29 1014.84 1014.05 1013.95 1014.28 1014.63 1014.78 1015.01 1015.19 1015.31 1015.44
1016.66 1016.88 1017.32 1017.70 1017.66 1017.57 1017.45 1017.32 1017.18 1016.99 1016.78 1016.61 1016.41 1016.19 1015.97 1015.78 1015.59 1015.51 1015.44 1015.37 1015.28 1015.24 1015.18 1015.09 1015.02 1015.07 1014.99 1014.89 1014.90 1014.85 1014.89 1014.96 1015.00 1014.49 1013.89 1013.92 1013.97 1014.23 1014.51 1014.74 1014.98 1015.14 1015.30
1017.16 1017.28 1017.30 1017.61 1017.75 1017.73 1017.70 1017.66 1017.49 1017.28 1017.06 1016.83 1016.63 1016.43 1016.26 1016.07 1015.83 1015.61 1015.42 1015.30 1015.20 1015.07 1014.95 1014.86 1014.82 1014.76 1014.67 1014.61 1014.58 1014.63 1014.74 1014.82 1014.62 1014.48 1013.87 1013.70 1013.80 1014.12 1014.41 1014.48 1014.66 1014.90 1015.05
1017.66 1017.67 1017.67 1017.63 1017.57 1017.42 1017.54 1017.64 1017.65 1017.47 1017.24 1017.03 1016.80 1016.55 1016.34 1016.06 1015.77 1015.51 1015.34 1015.20 1015.08 1014.98 1014.84 1014.72 1014.61 1014.51 1014.44 1014.34 1014.26 1014.30 1014.35 1014.42 1014.36 1013.78 1013.37 1013.27 1013.49 1013.82 1014.13 1014.31 1014.39 1014.59 1014.75
1017.83 1017.98 1017.99 1017.92 1017.73 1017.52 1017.30 1017.42 1017.51 1017.31 1017.19 1016.98 1016.74 1016.51 1016.25 1015.81 1015.46 1015.20 1015.09 1015.17 1015.13 1015.03 1014.82 1014.62 1014.43 1014.26 1014.09 1014.05 1014.02 1014.03 1013.98 1014.02 1013.99 1013.64 1013.20 1012.84 1013.14 1013.43 1013.74 1013.95 1014.00 1014.17 1014.42
1017.91 1018.18 1018.21 1018.24 1018.10 1017.92 1017.48 1017.26 1017.11 1016.89 1016.78 1016.57 1016.38 1016.20 1015.90 1015.16 1015.07 1014.87 1014.95 1015.05 1015.06 1014.90 1014.70 1014.47 1014.25 1014.06 1013.91 1013.77 1013.54 1013.44 1013.43 1013.23 1012.89 1012.71 1012.72 1012.55 1012.73 1013.18 1013.20 1013.48 1013.66 1013.68 1013.86
1017.98 1018.25 1018.52 1018.52 1018.46 1018.19 1017.68 1017.58 1017.16 1016.80 1016.62 1016.43 1016.27 1016.07 1015.70 1015.44 1015.27 1015.29 1014.98 1014.81 1014.55 1014.45 1014.30 1013.91 1013.71 1013.50 1013.38 1012.77 1012.23 1012.38 1012.64 1012.19 1011.90 1011.77 1011.82 1012.06 1012.32 1012.61 1012.83 1012.95 1013.05 1013.27 1013.36
1018.24 1018.43 1018.71 1018.68 1018.66 1018.46 1018.21 1017.88 1017.40 1017.08 1016.85 1016.56 1016.36 1016.25 1016.00 1015.61 1015.32 1015.05 1014.58 1014.25 1014.09 1013.94 1013.61 1013.30 1013.14 1012.71 1012.30 1012.01 1011.94 1011.74 1011.88 1011.94 1011.56 1011.49 1011.14 1011.61 1011.83 1011.93 1012.21 1012.49 1012.53 1012.60 1012.79
1018.13 1018.50 1018.78 1018.82 1018.71 1018.63 1018.54 1018.03 1017.80 1017.39 1017.30 1016.78 1016.62 1016.47 1016.29 1016.02 1015.85 1015.42 1014.94 1014.64 1014.31 1013.96 1013.73 1013.56 1013.11 1012.77 1012.48 1012.17 1011.74 1011.31 1011.23 1011.42 1011.53 1011.40 1011.11 1011.27 1011.17 1011.36 1011.57 1011.74 1011.95 1012.07 1012.11
1018.08 1018.50 1018.64 1018.69 1018.66 1018.67 1018.49 1018.22 1018.01 1017.74 1017.38 1017.11 1016.76 1016.73 1016.56 1016.25 1016.06 1015.60 1015.13 1014.86 1014.64 1014.34 1014.02 1013.70 1013.35 1012.97 1012.65 1012.26 1011.93 1011.54 1011.09 1010.70 1010.85 1010.73 1010.48 1010.47 1010.66 1010.66 1010.65 1010.88 1011.12 1011.34 1011.51
1018.25 1018.43 1018.55 1018.64 1018.63 1018.47 1018.30 1018.24 1017.98 1017.87 1017.79 1017.29 1017.02 1017.07 1016.92 1016.65 1016.44 1016.15 1015.71 1015.35 1015.05 1014.86 1014.68 1014.36 1013.90 1013.50 1013.04 1012.60 1012.11 1011.63 1011.16 1010.67 1010.29 1010.05 1009.95 1009.77 1009.81 1009.89 1009.95 1010.12 1010.21 1010.28 1010.48
1018.11 1018.46 1018.54 1018.71 1018.60 1018.39 1018.14 1018.15 1017.88 1017.78 1017.70 1017.93 1018.20 1018.18 1017.64 1017.12 1016.83 1016.53 1016.10 1015.91 1015.60 1015.44 1014.93 1014.51 1014.03 1013.57 1013.20 1012.74 1012.23 1011.75 1011.22 1010.64 1010.16 1009.85 1009.48 1009.24 1009.29 1009.55 1009.44 1009.37 1009.53 1009.68 1009.62
1018.25 1018.45 1018.68 1018.69 1018.60 1018.43 1018.19 1018.07 1017.85 1017.78 1017.75 1018.72 1018.65 1018.24 1017.85 1017.37 1017.23 1016.87 1016.34 1016.09 1016.00 1015.86 1015.46 1014.87 1014.40 1013.91 1013.46 1013.03 1012.48 1011.83 1011.29 1010.81 1010.42 1009.94 1009.39 1009.07 1008.90 1008.99 1008.98 1008.93 1008.76 1008.93 1008.98
1018.33 1018.55 1018.65 1018.77 1018.69 1018.59 1018.30 1018.04 1017.99 1017.96 1017.80 1017.97 1018.05 1018.07 1018.00 1017.63 1017.52 1017.12 1016.74 1016.50 1016.39 1016.40 1016.23 1015.82 1015.25 1014.62 1013.81 1013.04 1012.32 1011.62 1011.16 1010.65 1010.28 1009.96 1009.67 1009.22 1008.55 1008.35 1008.38 1008.29 1008.51 1008.34 1008.20
1018.24 1018.67 1018.80 1018.84 1018.78 1018.71 1018.35 1018.05 1017.90 1017.86 1018.10 1018.23 1018.30 1018.39 1018.27 1017.97 1017.83 1017.50 1017.10 1016.81 1016.78 1016.96 1016.79 1016.36 1015.83 1015.33 1014.58 1013.54 1012.41 1011.64 1010.91 1010.29 1009.74 1009.31 1008.98 1008.62 1008.33 1008.02 1007.71 1007.71 1007.68 1007.77 1007.73
1018.25 1018.65 1018.75 1018.89 1018.87 1018.81 1018.54 1018.28 1018.06 1018.09 1018.24 1018.34 1018.55 1018.61 1018.50 1018.33 1018.24 1017.87 1017.57 1017.18 1016.98 1016.80 1016.90 1016.44 1016.32 1015.75 1014.86 1014.14 1013.26 1012.24 1011.12 1010.26 1009.47 1008.93 1008.30 1008.01 1007.62 1007.16 1006.96 1007.02 1007.02 1007.14 1006.77
1018.01 1018.42 1018.70 1018.79 1018.90 1018.83 1018.77 1018.71 1018.67 1018.40 1018.43 1018.58 1018.69 1018.65 1018.73 1018.54 1018.54 1018.21 1018.06 1017.68 1017.33 1017.03 1016.77 1016.65 1016.55 1016.18 1015.59 1015.22 1014.62 1013.39 1011.37 1010.48 1009.63 1009.49 1008.82 1008.42 1008.39 1007.80 1007.18 1006.68 1006.49 1006.26 1006.11
1018.02 1018.27 1018.56 1018.75 1018.85 1018.79 1018.88 1018.80 1018.64 1018.56 1018.58 1018.56 1018.70 1018.80 1018.82 1018.72 1018.73 1018.69 1018.35 1018.04 1017.67 1017.36 1016.99 1016.74 1016.54 1016.53 1016.21 1015.75 1015.32 1014.55 1013.23 1011.93 1011.08 1009.23 1008.92 1009.01 1009.31 1008.60 1007.48 1007.61 1007.91 1007.40 1006.52
1017.79 1018.23 1018.44 1018.52 1018.72 1018.85 1018.94 1018.79 1018.66 1018.53 1018.48 1018.85 1019.01 1019.05 1018.97 1018.96 1018.93 1018.92 1018.70 1018.35 1018.00 1017.69 1017.43 1017.20 1016.88 1016.70 1016.42 1016.13 1015.63 1015.34 1014.93 1013.97 1012.04 1010.38 1009.52 1009.48 1009.73 1009.48 1008.21 1010.52 1009.28 1008.42 1008.36
1017.55 1017.91 1018.22 1018.37 1018.58 1018.76 1018.95 1018.98 1018.91 1018.76 1018.82 1018.91 1018.92 1018.92 1018.81 1018.71 1018.79 1018.85 1018.78 1018.56 1018.30 1017.98 1017.72 1017.45 1017.18 1016.95 1016.72 1016.53 1016.27 1015.76 1014.97 1014.18 1013.48 1012.93 1010.63 1010.28 1010.17 1010.64 1010.32 1009.70 1009.70 1009.46 1009.36
1017.42 1017.79 1018.03 1018.09 1018.32 1018.54 1018.80 1018.88 1018.89 1018.82 1018.76 1018.74 1018.70 1018.75 1018.62 1018.64 1018.68 1018.72 1018.84 1018.66 1018.39 1018.15 1017.98 1017.81 1017.57 1017.25 1016.96 1016.72 1016.34 1016.14 1015.90 1015.42 1014.65 1013.97 1012.60 1011.49 1010.85 1011.26 1011.23 1010.95 1010.84 1010.68 1011.07
Thickness
5748 5750 5748 5747 5745 5744 5744 5743 5742 5741 5740 5740 5738 5738 5736 5735 5735 5735 5734 5734 5733 5733 5733 5734 5734 5734 5734 5734 5733 5733 5732 5732 5731 5731 5731 5731 5731 5730 5729 5728 5729 5730 5728
5748 5749 5745 5743 5742 5742 5741 5740 5739 5738 5737 5737 5736 5736 5734 5733 5732 5732 5732 5731 5730 5730 5731 5731 5731 5731 5731 5731 5731 5730 5730 5729 5728 5728 5727 5727 5727 5726 5726 5726 5725 5726 5724
5745 5742 5741 5738 5738 5738 5737 5736 5735 5735 5734 5734 5733 5733 5733 5731 5731 5730 5730 5729 5729 5728 5728 5727 5727 5727 5727 5726 5727 5726 5726 5726 5725 5725 5725 5727 5728 5724 5723 5722 5722 5722 5720
5740 5736 5734 5733 5733 5733 5733 5732 5732 5732 5731 5731 5730 5730 5730 5729 5729 5728 5727 5726 5726 5725 5725 5725 5724 5723 5723 5722 5722 5722 5722 5721 5721 5722 5723 5727 5727 5722 5720 5719 5718 5718 5717
5736 5731 5726 5727 5726 5726 5727 5726 5726 5726 5726 5727 5726 5726 5726 5726 5725 5725 5725 5724 5723 5722 5721 5721 5720 5720 5719 5719 5718 5718 5717 5718 5718 5718 5722 5725 5722 5721 5719 5716 5715 5715 5715
5732 5727 5722 5721 5721 5720 5720 5720 5720 5720 5721 5721 5722 5722 5722 5722 5721 5721 5720 5719 5718 5718 5717 5717 5717 5717 5716 5716 5715 5714 5714 5713 5713 5715 5721 5722 5719 5717 5716 5714 5713 5711 5710
5724 5722 5718 5715 5714 5714 5714 5714 5714 5714 5714 5714 5714 5714 5715 5715 5715 5714 5714 5714 5713 5713 5713 5712 5712 5711 5711 5712 5711 5710 5710 5709 5709 5712 5717 5717 5717 5716 5713 5711 5709 5708 5707
5717 5715 5713 5710 5709 5708 5708 5706 5706 5706 5707 5707 5707 5707 5707 5707 5707 5708 5708 5709 5708 5708 5708 5708 5707 5706 5706 5707 5707 5706 5705 5704 5705 5707 5712 5713 5713 5711 5709 5708 5706 5704 5704
5709 5708 5707 5705 5704 5704 5702 5701 5700 5700 5700 5700 5700 5701 5702 5702 5703 5704 5703 5704 5703 5703 5703 5703 5702 5702 5701 5701 5702 5701 5701 5701 5701 5705 5708 5710 5709 5706 5705 5703 5702 5701 5699
5703 5701 5698 5697 5698 5698 5698 5697 5696 5696 5695 5696 5696 5697 5698 5700 5701 5702 5701 5700 5698 5698 5699 5699 5699 5699 5699 5698 5698 5697 5697 5697 5697 5698 5702 5706 5704 5702 5700 5699 5699 5698 5696
5698 5694 5692 5690 5690 5690 5692 5693 5694 5694 5694 5695 5694 5695 5696 5699 5698 5698 5696 5694 5693 5693 5693 5694 5694 5694 5694 5694 5695 5694 5694 5695 5697 5698 5698 5700 5698 5696 5697 5695 5694 5694 5693
5690 5688 5684 5684 5684 5685 5688 5687 5689 5690 5690 5690 5689 5689 5690 5691 5690 5688 5689 5689 5689 5688 5687 5689 5689 5690 5689 5692 5695 5694 5691 5693 5696 5697 5697 5696 5693 5690 5689 5691 5690 5689 5689
5683 5682 5679 5679 5679 5679 5680 5681 5682 5683 5682 5682 5682 5681 5680 5681 5681 5681 5682 5683 5682 5682 5682 5683 5683 5684 5686 5688 5688 5688 5686 5685 5687 5689 5693 5689 5688 5685 5684 5683 5684 5685 5684
5680 5677 5675 5674 5674 5673 5673 5674 5673 5674 5673 5674 5673 5672 5671 5671 5669 5670 5671 5671 5671 5672 5672 5672 5674 5675 5676 5676 5678 5681 5681 5678 5677 5677 5680 5680 5681 5681 5677 5678 5678 5678 5679
5677 5673 5672 5670 5669 5667 5667 5667 5666 5666 5665 5665 5664 5661 5660 5660 5659 5660 5661 5660 5659 5660 5660 5661 5662 5663 5664 5666 5667 5669 5673 5674 5671 5670 5672 5673 5672 5673 5673 5671 5671 5672 5672
5671 5669 5667 5665 5663 5663 5662 5660 5659 5657 5654 5654 5654 5650 5649 5648 5647 5646 5647 5647 5647 5646 5646 5647 5649 5650 5652 5654 5656 5658 5661 5663 5665 5665 5663 5664 5664 5664 5664 5662 5664 5666 5667
5667 5664 5662 5658 5657 5657 5657 5654 5652 5649 5646 5641 5637 5634 5635 5635 5634 5633 5634 5634 5634 5634 5636 5637 5638 5640 5641 5643 5646 5647 5649 5651 5653 5654 5656 5656 5653 5652 5654 5654 5653 5655 5658
5660 5657 5654 5652 5651 5650 5649 5646 5643 5640 5637 5628 5626 5626 5625 5626 5624 5624 5626 5626 5624 5623 5624 5626 5628 5630 5631 5632 5634 5636 5638 5639 5640 5641 5644 5644 5645 5643 5643 5646 5646 5644 5648
5653 5649 5647 5645 5643 5640 5639 5637 5635 5632 5630 5626 5623 5621 5619 5618 5617 5617 5617 5616 5614 5612 5611 5611 5613 5616 5619 5622 5625 5628 5628 5629 5629 5629 5628 5629 5632 5632 5632 5634 5634 5636 5639
5647 5641 5638 5636 5633 5630 5630 5630 5628 5626 5621 5618 5616 5613 5611 5610 5608 5607 5607 5607 5604 5600 5599 5599 5600 5600 5603 5608 5613 5615 5618 5621 5623 5622 5622 5621 5620 5620 5621 5622 5623 5628 5629
5637 5633 5630 5627 5624 5622 5622 5622 5621 5618 5616 5613 5608 5606 5604 5601 5599 5598 5597 5597 5595 5595 5590 5591 5588 5589 5591 5595 5596 5600 5606 5611 5613 5614 5615 5613 5611 5609 5608 5608 5610 5613 5622
5629 5626 5623 5620 5617 5616 5614 5612 5610 5611 5609 5605 5601 5599 5595 5594 5591 5590 5587 5587 5587 5586 5586 5584 5581 5579 5579 5577 5578 5582 5597 5599 5602 5597 5596 5591 5582 5580 5583 5588 5590 5597 5604
5620 5619 5616 5614 5612 5610 5607 5606 5606 5604 5601 5599 5595 5591 5588 5586 5583 5580 5579 5578 5577 5577 5577 5575 5573 5569 5566 5564 5563 5566 5574 5582 5581 5591 5581 5567 5552 5553 5560 5556 5553 5563 5575
5613 5611 5610 5609 5607 5604 5602 5602 5601 5599 5597 5591 5587 5584 5581 5578 5575 5572 5571 5570 5569 5567 5566 5564 5562 5559 5557 5553 5552 5550 5548 5551 5567 5575 5566 5553 5544 5541 5548 5523 5536 5540 5552
5611 5608 5606 5605 5604 5601 5598 5595 5593 5592 5588 5585 5582 5579 5577 5574 5570 5566 5564 5562 5560 5558 5556 5554 5551 5549 5546 5543 5540 5538 5539 5541 5542 5539 5556 5541 5539 5528 5529 5527 5533 5536 5536
5608 5605 5604 5604 5602 5598 5594 5591 5588 5586 5584 5581 5578 5574 5572 5568 5564 5560 5556 5554 5552 5550 5547 5543 5540 5538 5536 5533 5531 5527 5524 5523 5524 5523 5528 5532 5533 5521 5518 5520 5520 5521 5517